Regional Weather Roundup
Issued by NWS

Home | Current Version | Previous Version | Text Only | Print | Product List | Glossary Off
Versions: 1 2 3 4 5 6 7 8 9 10 11 12 13 14 15 16 17 18 19 20 21 22 23 24 25 26 27 28 29 30 31 32 33 34 35 36 37 38 39 40 41 42 43 44 45 46 47 48 49 50

000
ASUS45 KCYS 230410
RWRWY

WYOMING REGIONAL WEATHER ROUNDUP
NATIONAL WEATHER SERVICE CHEYENNE WY
1000 PM MDT THU JUN 22 2017

NOTE:  "FAIR" INDICATES FEW OR NO CLOUDS BELOW 12,000 FEET
WITH NO SIGNIFICANT WEATHER AND/OR OBSTRUCTIONS TO VISIBILITY.

WYZ001-230500-
YELLOWSTONE NATIONAL PARK

CITY           SKY/WX    TMP DP  RH WIND       PRES   REMARKS
LK YELLOWSTONE   N/A     47  24  40 MISG      30.31R
W YELLOWSTONE  NOT AVBL

$$
WYZ002>013-054>058-071-098>099-230500-
NORTHERN WYOMING

CITY           SKY/WX    TMP DP  RH WIND       PRES   REMARKS
JACKSON        FAIR      52  34  50 NE5       30.18R
CODY           FAIR      56  31  38 N22G28    30.26R
GREYBULL       FAIR      64  27  24 N28G33    30.14R
WORLAND        MOCLDY    64  30  27 NW20G28   30.12R
SHERIDAN       CLOUDY    59  29  31 N18G24    30.22R
BUFFALO        CLOUDY    58  28  32 N22G37    30.22R
GILLETTE       CLOUDY    60  28  29 N10       30.14R
NEWCASTLE      FAIR      61  32  33 N18G26    30.11R

$$
WYZ014>020-022>026-101>103-230500-
CENTRAL WYOMING

CITY           SKY/WX    TMP DP  RH WIND       PRES   REMARKS
BIG PINEY      FAIR      57  27  31 N14       30.21R
PINEDALE       FAIR      50  32  50 W8        30.22R
DUBOIS         FAIR      54  21  28 W10       30.20R
LANDER         MOCLDY    62  26  25 N10       30.20R
RIVERTON       FAIR      61  25  25 N20G31    30.14R
CASPER         CLOUDY    62  29  28 N21G28    30.15R
DOUGLAS        CLOUDY    65  35  33 N14G21    30.11R

$$
WYZ021-027>030-104>119-230500-
SOUTHERN WYOMING

CITY           SKY/WX    TMP DP  RH WIND       PRES   REMARKS
EVANSTON       FAIR      60  35  39 W12       30.22R
KEMMERER         N/A     55  34  44 NW9       30.23R
FORT BRIDGER   FAIR      63  34  34 NW8       30.23R
ROCK SPRINGS   FAIR      64  22  20 NW10      30.16R
DIXON          FAIR      69  22  16 NW13      30.11R
RAWLINS        FAIR      64  39  39 NE9       30.13R
SARATOGA       FAIR      57  37  47 NW3       30.10R
LARAMIE        FAIR      58  38  47 NE8       30.15R
CHEYENNE       CLOUDY    65  51  60 E12       30.09R
TORRINGTON     CLOUDY    70  42  36 NE13      30.01R
PINE BLUFFS    CLOUDY    64  50  59 E8        30.04R

$$



USA.gov is the U.S. government's official web portal to all federal, state and local government web resources and services.